Weather History for K2C8 - October, 2013

Change the Weather History Date:

Sunday, October 6, 2013

  Actual Average (KGAF) Record (KGAF)
Temperature  
Mean Temperature 50 °F -  
Max Temperature 68 °F 60 °F 83 °F (1961)
Min Temperature 32 °F 35 °F 20 °F (1953)
Degree Days  
Heating Degree Days 15    
Moisture  
Dew Point 35 °F    
Average Humidity 65    
Maximum Humidity 100    
Minimum Humidity 30    
Precipitation  
Precipitation 0.00 in - - ()
Sea Level Pressure  
Sea Level Pressure 29.88 in    
Wind  
Wind Speed 8 mph (NW)    
Max Wind Speed 17 mph    
Max Gust Speed 23 mph    
Visibility 10 miles    
Events      
Averages and records for this station are not official NWS values.
T = Trace of Precipitation, MM = Missing Value Source: NWS Daily Summary

Daily Weather History Graph

Daily Weather History Graph

Search for Another Location

Airport or City:

Trip Planner

Search our weather history database for the weather conditions in past years. The results will help you decide how hot, cold, wet, or windy it might be!

Date:

Astronomy

Oct. 06, 2013 Rise Set
Actual Time 7:37 AM CDT 6:58 PM CDT
Civil Twilight 7:06 AM CDT 7:29 PM CDT
Nautical Twilight 6:29 AM CDT 8:06 PM CDT
Astronomical Twilight 5:52 AM CDT 8:43 PM CDT
Moon 9:35 AM CDT (10/6) 7:45 PM CDT (10/6)
Length of Visible Light 12h 23m
Length of Day
11h 20m
Waxing Crescent, 3% of the Moon is Illuminated
Oct 6
Waxing Crescent
Oct 11
First Quarter
Oct 18
Full
Oct 26
Last Quarter
Nov 3
New

Hourly Weather History & Observations

Time (CDT) Temp. Windchill Dew Point Humidity Pressure Visibility Wind Dir Wind Speed Gust Speed Precip Events Conditions
12:15 AM 42.8 °F 37.0 °F 37.4 °F 81% 29.96 in 10.0 mi NNW 10.4 mph - N/A   Overcast
12:35 AM 41.0 °F 35.2 °F 35.6 °F 81% 29.97 in 10.0 mi NNW 9.2 mph - N/A   Scattered Clouds
12:55 AM 41.0 °F 36.4 °F 35.6 °F 81% 29.98 in 10.0 mi North 6.9 mph - N/A   Mostly Cloudy
1:15 AM 39.2 °F 32.5 °F 33.8 °F 81% 29.98 in 10.0 mi NNW 10.4 mph 18.4 mph N/A   Overcast
1:35 AM 39.2 °F 33.0 °F 33.8 °F 81% 29.97 in 10.0 mi NNW 9.2 mph - N/A   Mostly Cloudy
1:55 AM 39.2 °F 34.2 °F 33.8 °F 81% 29.97 in 10.0 mi North 6.9 mph - N/A   Partly Cloudy
2:15 AM 37.4 °F 30.3 °F 32.0 °F 81% 29.97 in 10.0 mi NNW 10.4 mph - N/A   Clear
2:35 AM 37.4 °F 29.3 °F 32.0 °F 81% 29.95 in 10.0 mi NNW 12.7 mph 18.4 mph N/A   Clear
2:55 AM 37.4 °F 29.3 °F 32.0 °F 81% 29.95 in 10.0 mi NNW 12.7 mph - N/A   Clear
3:15 AM 37.4 °F 29.3 °F 32.0 °F 81% 29.94 in 10.0 mi NNW 12.7 mph 20.7 mph N/A   Clear
3:35 AM 37.4 °F 30.8 °F 32.0 °F 81% 29.94 in 10.0 mi North 9.2 mph - N/A   Clear
3:55 AM 37.4 °F 29.3 °F 32.0 °F 81% 29.93 in 10.0 mi NNW 12.7 mph 17.3 mph N/A   Clear
4:15 AM 37.4 °F 29.8 °F 32.0 °F 81% 29.92 in 10.0 mi NNW 11.5 mph - N/A   Clear
4:35 AM 37.4 °F 31.4 °F 32.0 °F 81% 29.92 in 10.0 mi NNW 8.1 mph - N/A   Clear
4:55 AM 37.4 °F 31.4 °F 32.0 °F 81% 29.91 in 10.0 mi NNW 8.1 mph - N/A   Clear
5:15 AM 37.4 °F 29.8 °F 32.0 °F 81% 29.91 in 10.0 mi NNW 11.5 mph - N/A   Clear
5:35 AM 35.6 °F 29.2 °F 32.0 °F 87% 29.91 in 10.0 mi NNW 8.1 mph - N/A   Clear
5:55 AM 35.6 °F 29.9 °F 32.0 °F 87% 29.91 in 10.0 mi NNW 6.9 mph - N/A   Clear
6:15 AM 35.6 °F 30.7 °F 32.0 °F 87% 29.91 in 10.0 mi NW 5.8 mph - N/A   Clear
6:35 AM 35.6 °F 31.7 °F 32.0 °F 87% 29.91 in 10.0 mi NW 4.6 mph - N/A   Clear
6:55 AM 32.0 °F - 30.2 °F 93% 29.91 in 10.0 mi Calm Calm - N/A   Clear
7:15 AM 32.0 °F - 30.2 °F 93% 29.91 in 10.0 mi Calm Calm - N/A   Clear
7:35 AM 32.0 °F - 30.2 °F 93% 29.90 in 10.0 mi Calm Calm - N/A   Clear
7:55 AM 32.0 °F - 28.4 °F 87% 29.92 in 10.0 mi Calm Calm - N/A   Clear
8:15 AM 32.0 °F 28.7 °F 32.0 °F 100% 29.91 in 10.0 mi SSW 3.5 mph - N/A   Clear
8:35 AM 35.6 °F 32.8 °F 32.0 °F 87% 29.91 in 10.0 mi South 3.5 mph - N/A   Clear
8:55 AM 37.4 °F - 32.0 °F 81% 29.91 in 10.0 mi Calm Calm - N/A   Clear
9:15 AM 37.4 °F 34.9 °F 32.0 °F 81% 29.91 in 10.0 mi South 3.5 mph - N/A   Clear
9:35 AM 39.2 °F 35.9 °F 32.0 °F 75% 29.91 in 10.0 mi South 4.6 mph - N/A   Clear
9:55 AM 41.0 °F 37.1 °F 32.0 °F 70% 29.90 in 10.0 mi South 5.8 mph - N/A   Clear
10:15 AM 42.8 °F 39.3 °F 32.0 °F 66% 29.90 in 10.0 mi South 5.8 mph - N/A   Clear
10:35 AM 44.6 °F 43.1 °F 33.8 °F 66% 29.90 in 10.0 mi South 3.5 mph - N/A   Clear
10:55 AM 46.4 °F 45.2 °F 35.6 °F 66% 29.91 in 10.0 mi South 3.5 mph - N/A   Clear
11:15 AM 48.2 °F - 35.6 °F 62% 29.90 in 10.0 mi SSE 3.5 mph - N/A   Clear
11:35 AM 50.0 °F - 37.4 °F 62% 29.89 in 10.0 mi South 4.6 mph - N/A   Clear
11:55 AM 51.8 °F - 39.2 °F 62% 29.89 in 10.0 mi South 4.6 mph - N/A   Clear
12:15 PM 53.6 °F - 37.4 °F 54% 29.88 in 10.0 mi Calm Calm - N/A   Clear
12:35 PM 55.4 °F - 37.4 °F 51% 29.88 in 10.0 mi SW 4.6 mph - N/A   Clear
12:55 PM 57.2 °F - 35.6 °F 44% 29.87 in 10.0 mi Calm Calm - N/A   Clear
1:15 PM 59.0 °F - 35.6 °F 42% 29.86 in 10.0 mi Calm Calm - N/A   Clear
1:35 PM 60.8 °F - 37.4 °F 42% 29.85 in 10.0 mi Calm Calm - N/A   Clear
1:55 PM 62.6 °F - 37.4 °F 39% 29.83 in 10.0 mi Calm Calm - N/A   Clear
2:15 PM 64.4 °F - 37.4 °F 37% 29.83 in 10.0 mi NW 4.6 mph - N/A   Clear
2:35 PM 66.2 °F - 37.4 °F 35% 29.82 in 9.0 mi Calm Calm - N/A   Clear
2:55 PM 68.0 °F - 37.4 °F 33% 29.81 in 10.0 mi NW 16.1 mph 20.7 mph N/A   Clear
3:15 PM 68.0 °F - 37.4 °F 33% 29.81 in 10.0 mi NW 15.0 mph 23.0 mph N/A   Clear
3:35 PM 68.0 °F - 37.4 °F 33% 29.81 in 10.0 mi NW 17.3 mph 21.9 mph N/A   Clear
3:55 PM 68.0 °F - 37.4 °F 33% 29.81 in 10.0 mi NW 16.1 mph 20.7 mph N/A   Clear
4:15 PM 68.0 °F - 37.4 °F 33% 29.80 in 10.0 mi NW 12.7 mph 16.1 mph N/A   Clear
4:35 PM 68.0 °F - 37.4 °F 33% 29.80 in 10.0 mi WNW 15.0 mph 19.6 mph N/A   Clear
4:55 PM 68.0 °F - 35.6 °F 30% 29.80 in 10.0 mi NW 16.1 mph 20.7 mph N/A   Clear
5:15 PM 68.0 °F - 35.6 °F 30% 29.80 in 10.0 mi NW 12.7 mph 18.4 mph N/A   Clear
5:35 PM 68.0 °F - 37.4 °F 33% 29.79 in 10.0 mi NW 11.5 mph 17.3 mph N/A   Clear
5:55 PM 66.2 °F - 37.4 °F 35% 29.80 in 10.0 mi WNW 12.7 mph 20.7 mph N/A   Clear
6:15 PM 64.4 °F - 37.4 °F 37% 29.80 in 10.0 mi NW 11.5 mph - N/A   Clear
6:35 PM 64.4 °F - 37.4 °F 37% 29.80 in 10.0 mi WNW 6.9 mph - N/A   Mostly Cloudy
6:55 PM 62.6 °F - 37.4 °F 39% 29.80 in 10.0 mi WNW 6.9 mph - N/A   Mostly Cloudy
7:15 PM 62.6 °F - 39.2 °F 42% 29.80 in 10.0 mi WNW 8.1 mph - N/A   Scattered Clouds
7:35 PM 60.8 °F - 39.2 °F 45% 29.81 in 10.0 mi North 6.9 mph - N/A   Scattered Clouds
7:55 PM 59.0 °F - 39.2 °F 48% 29.82 in 10.0 mi North 5.8 mph - N/A   Partly Cloudy
8:15 PM 57.2 °F - 39.2 °F 51% 29.82 in 10.0 mi North 5.8 mph - N/A   Clear
8:35 PM 55.4 °F - 39.2 °F 54% 29.82 in 10.0 mi North 3.5 mph - N/A   Clear
8:55 PM 50.0 °F - 39.2 °F 66% 29.83 in 10.0 mi NW 3.5 mph - N/A   Clear
9:15 PM 48.2 °F - 39.2 °F 71% 29.83 in 10.0 mi WNW 4.6 mph - N/A   Clear
9:35 PM 46.4 °F 44.3 °F 39.2 °F 76% 29.83 in 10.0 mi West 4.6 mph - N/A   Clear
9:55 PM 44.6 °F 42.2 °F 37.4 °F 76% 29.84 in 10.0 mi West 4.6 mph - N/A   Clear
10:15 PM 44.6 °F 43.1 °F 37.4 °F 76% 29.84 in 10.0 mi West 3.5 mph - N/A   Clear
10:35 PM 42.8 °F 41.1 °F 37.4 °F 81% 29.84 in 10.0 mi West 3.5 mph - N/A   Clear
10:55 PM 41.0 °F 39.0 °F 37.4 °F 87% 29.85 in 10.0 mi West 3.5 mph - N/A   Clear
11:15 PM 41.0 °F 39.0 °F 37.4 °F 87% 29.85 in 10.0 mi West 3.5 mph - N/A   Clear
11:35 PM 41.0 °F - 37.4 °F 87% 29.85 in 10.0 mi Calm Calm - N/A   Clear
11:55 PM 41.0 °F 39.0 °F 37.4 °F 87% 29.85 in 10.0 mi West 3.5 mph - N/A   Clear